This demonstration page uses our WeatherBlox Daily Observations layout. Learn more.

Left ArrowRight Arrow

38.20091, -84.87328

Hourly Observations for July 27, 2017

Temp ( °F °C ) Dew Point ( °F °C ) Humidity (%) Winds ( mph kmh ) Pressure ( in mb ) Visibility ( mi km ) Precip ( " mm )
12:53 am 00:53 Mostly Cloudy 80 26.7 71 21.7 74 74 Calm 29.98 1015 10 16 0.00 0.00
1:53 am 01:53 Clear 79 26.1 71 21.7 77 77 Calm 29.96 1015 10 16 0.00 0.00
2:53 am 02:53 Partly Cloudy 77 25 72 22.2 85 85 SSW 5 7 29.96 1015 10 16 0.00 0.00
3:53 am 03:53 Mostly Clear 78 25.6 72 22.2 82 82 SW 3 6 29.93 1014 10 16 0.00 0.00
4:53 am 04:53 Clear 77 25 71 21.7 82 82 Calm 29.93 1014 10 16 0.00 0.00
5:53 am 05:53 Mostly Cloudy 77 25 71 21.7 82 82 SSW 3 6 29.94 1014 10 16 0.00 0.00
6:53 am 06:53 Mostly Sunny 77 25 71 21.7 82 82 SW 6 9 29.94 1014 10 16 0.00 0.00
7:53 am 07:53 Sunny 78 25.6 72 22.2 82 82 VRB 5 7 29.94 1014 10 16 0.00 0.00
8:53 am 08:53 Mostly Sunny 78 25.6 73 22.8 85 85 WSW 3 6 29.95 1014 8 13 0.00 0.03
9:53 am 09:53 Mostly Sunny 80 26.7 73 22.8 79 79 SW 6 9 29.95 1014 9 14 0.00 0.00
10:53 am 10:53 Partly Cloudy 83 28.3 73 22.8 72 72 SW 8 13 29.95 1014 10 16 0.00 0.00
11:53 am 11:53 Mostly Cloudy 84 28.9 73 22.8 70 70 VRB 6 9 29.95 1014 10 16 0.00 0.00
12:09 pm 12:09 Mostly Cloudy 84 28.9 73 22.8 70 70 WNW 5 7 29.94 1014 10 16 0.00 0.00
12:37 pm 12:37 Partly Cloudy 85 29.4 73 22.8 68 68 VRB 6 9 29.94 1014 10 16 0.00 0.00
12:53 pm 12:53 Mostly Cloudy 85 29.4 73 22.8 68 68 W 6 9 29.93 1014 10 16 0.00 0.00
1:02 pm 13:02 Partly Cloudy 86 30 74 23.3 67 67 W 6 9 29.94 1014 10 16 0.00 0.00
1:14 pm 13:14 Mostly Cloudy 85 29.4 74 23.3 70 70 WSW 7 11 29.94 1014 10 16 0.00 0.00
1:36 pm 13:36 Mostly Cloudy 85 29.4 73 22.8 68 68 WNW 7 11 29.91 1013 10 16 0.00 0.00
1:53 pm 13:53 Partly Cloudy 85 29.4 73 22.8 68 68 WNW 7 11 29.91 1013 10 16 0.00 0.00
2:53 pm 14:53 Mostly Cloudy 86 30 74 23.3 67 67 WSW 7 11 29.90 1013 10 16 0.00 0.00
3:05 pm 15:05 Mostly Cloudy 85 29.4 73 22.8 68 68 WSW 5 7 29.91 1013 10 16 0.00 0.00
3:47 pm 15:47 Mostly Cloudy with Rain 82 28 73 23 74 74 W 8 13 29.88 1012 3 4 0.03 0.76
3:53 pm 15:53 Mostly Cloudy with Rain 81 27.2 73 22.8 77 77 WSW 6 9 29.89 1012 2 3 0.05 1.27
4:03 pm 16:03 Mostly Cloudy 81 27.2 74 23.3 79 79 W 5 7 29.88 1012 8 13 0.00 0.03
4:53 pm 16:53 Sunny 85 29.4 75 23.9 72 72 NW 5 7 29.86 1011 10 16 0.00 0.03
5:53 pm 17:53 Mostly Cloudy 86 30 73 22.8 65 65 NW 6 9 29.85 1011 10 16 0.00 0.00
6:43 pm 18:43 Mostly Cloudy with Heavy Rain 82 27.8 73 22.8 74 74 WNW 3 6 29.85 1011 2 2 0.04 1.02
6:53 pm 18:53 Mostly Cloudy with Light Rain 81 27.2 74 23.3 79 79 WNW 3 6 29.86 1011 4 6 0.05 1.27
7:53 pm 19:53 Sunny 83 28.3 74 23.3 74 74 Calm 29.85 1011 10 16 0.00 0.03
8:53 pm 20:53 Partly Cloudy 78 25.6 72 22.2 82 82 S 13 20 29.86 1011 10 16 0.00 0.00
9:53 pm 21:53 Mostly Clear 75 23.9 70 21.1 84 84 SSW 8 13 29.86 1011 10 16 0.00 0.00
10:53 pm 22:53 Mostly Clear 74 23.3 70 21.1 88 88 SSW 7 11 29.85 1011 10 16 0.00 0.00
11:53 pm 23:53 Clear 74 23.3 70 21.1 88 88 Calm 29.84 1011 10 16 0.00 0.00

Powered by AerisWeather